EDT,Max TemperatureF,Mean TemperatureF,Min TemperatureF,Max Dew PointF,MeanDew PointF,Min DewpointF,Max Humidity, Mean Humidity, Min Humidity, Max Sea Level PressureIn, Mean Sea Level PressureIn, Min Sea Level PressureIn, Max VisibilityMiles, Mean VisibilityMiles, Min VisibilityMiles, Max Wind SpeedMPH, Mean Wind SpeedMPH, Max Gust SpeedMPH,PrecipitationIn, CloudCover, Events, WindDirDegrees
2012-9-1,89,76,62,65,61,56,93,68,34,30.06,30.00,29.94,10,9,4,9,2,,0.00,1,,324
2012-9-2,82,71,60,68,64,59,97,83,56,30.10,30.07,30.01,10,9,6,6,0,,0.00,5,Rain,102
2012-9-3,75,70,66,67,65,63,100,87,69,30.16,30.12,30.08,10,7,0,8,2,,0.00,7,Fog,68
2012-9-4,78,72,66,72,67,64,100,88,74,30.11,30.00,29.88,10,9,5,7,1,18,0.07,7,Rain,194
2012-9-5,79,71,64,73,68,62,100,87,60,29.86,29.81,29.77,10,6,0,9,3,,1.15,6,Fog-Rain-Thunderstorm,286
2012-9-6,75,66,60,67,63,61,100,96,74,29.92,29.89,29.86,10,4,0,0,0,,0.01,5,Fog,-1
2012-9-7,84,74,64,69,66,64,97,72,51,29.93,29.90,29.87,10,10,7,6,1,,0.00,0,,160
2012-9-8,84,74,62,70,65,59,100,89,63,29.83,29.75,29.61,10,6,0,14,2,32,0.04,5,Fog-Rain-Thunderstorm,222
2012-9-9,73,63,53,61,56,52,100,89,49,29.91,29.84,29.79,10,6,0,5,0,,0.01,1,Fog,283
2012-9-10,70,60,48,54,46,42,100,63,39,30.17,30.05,29.94,10,10,2,12,4,20,0.00,2,,341
2012-9-11,73,58,42,56,47,40,97,74,39,30.30,30.25,30.17,10,10,10,6,1,,0.00,0,,305
2012-9-12,78,62,46,59,52,44,96,77,42,30.38,30.34,30.30,10,10,2,6,1,,0.00,0,,183
2012-9-13,79,64,48,58,54,47,97,76,42,30.38,30.33,30.28,10,9,6,8,1,,0.01,0,,206
2012-9-14,79,64,51,61,54,50,100,84,45,30.29,30.21,30.09,10,6,0,6,1,,0.01,3,Fog,202
2012-9-15,70,60,48,58,50,45,93,70,45,30.18,30.13,30.10,10,10,9,12,3,20,0.03,3,Rain,325
2012-9-16,72,58,45,51,47,43,93,74,39,30.15,30.10,30.05,10,10,9,7,1,,0.01,2,,259
2012-9-17,75,60,44,55,50,42,97,76,44,30.13,30.07,30.02,10,10,10,8,1,,0.00,1,,202
2012-9-18,75,66,59,68,65,56,100,91,82,30.01,29.78,29.59,10,5,1,18,3,29,1.81,8,Rain,186
2012-9-19,66,56,46,64,49,40,94,70,40,30.21,29.98,29.74,10,9,4,10,5,21,0.08,4,Rain,328
2012-9-20,70,55,42,55,48,41,97,78,47,30.23,30.17,30.11,10,10,9,8,2,,0.00,2,,103
2012-9-21,71,60,51,59,54,50,97,82,63,30.12,30.08,30.02,10,10,6,7,1,,0.00,5,,157
2012-9-22,73,62,50,68,58,48,100,88,73,30.02,29.89,29.77,10,8,2,13,1,26,0.31,7,Rain,182
2012-9-23,66,56,48,58,50,41,100,82,42,30.14,29.99,29.87,10,6,0,8,1,,0.00,4,Fog,322
2012-9-24,64,54,43,48,43,36,97,75,38,30.18,30.14,30.10,10,10,10,8,1,,0.00,3,,272
2012-9-25,70,54,37,53,44,36,97,73,36,30.19,30.15,30.11,10,10,7,8,2,17,0.00,1,,213
2012-9-26,70,62,55,63,59,54,97,88,73,30.11,30.06,30.03,10,8,4,7,1,,0.04,8,Rain,214
2012-9-27,73,65,57,61,58,50,100,85,48,30.19,30.13,30.05,10,5,0,8,1,,0.08,6,Fog-Rain,10
2012-9-28,60,56,53,57,54,51,100,94,87,30.17,30.06,29.97,10,7,2,9,5,,0.48,8,Rain,39
2012-9-29,63,58,55,55,54,51,100,90,67,29.96,29.94,29.88,10,6,1,7,3,,0.03,8,Rain,47
2012-9-30,66,55,46,54,51,45,100,88,54,29.90,29.85,29.78,10,7,0,15,1,23,0.26,5,Fog-Rain-Thunderstorm,236